BAW84 CYVR-EGLL

Flight info

Callsign BAW84
Flight time N/A
Altitude 33000
Route DCT JANEK DCT VIDRI DCT YZU J527 YMM/N0492F350 DCT 62N100W 6430N09000W 6530N08000W 6530N07000W DCT KENKI/M084F350 DCT CLAVY DCT 63N050W/M084F370 62N040W 60N030W 58N020W DCT PIKIL/N0477F370 DCT SOVED DCT LUTOV DCT KELLY L10 WAL UY53 NUGRA NUGRA1H
Aircraft B77W/H-SDE1E2E3FGHIJ2J3J4J5M1RWXY/LB1D1

Departure

Time N/A
Airport Vancouver International Airport (CYVR)

Arrival

Time 2026-05-04 07:09
Airport London Heathrow Airport (EGLL)
Time Latitude Longitude Altitude Speed Heading
2026-05-04 07:01 51.64126 -0.36316 7037 ft 246 kts 127°
2026-05-04 07:01 51.63108 -0.34090 7036 ft 247 kts 128°
2026-05-04 07:02 51.62086 -0.31856 7030 ft 248 kts 127°
2026-05-04 07:02 51.61046 -0.29678 6845 ft 251 kts 131°
2026-05-04 07:02 51.59909 -0.27490 6554 ft 250 kts 131°
2026-05-04 07:02 51.58798 -0.25363 6274 ft 247 kts 131°
2026-05-04 07:03 51.57706 -0.23266 6006 ft 243 kts 130°
2026-05-04 07:03 51.56667 -0.21169 5628 ft 243 kts 128°
2026-05-04 07:03 51.55645 -0.19005 5272 ft 243 kts 127°
2026-05-04 07:03 51.54607 -0.16807 4915 ft 244 kts 127°
2026-05-04 07:04 51.53594 -0.14667 4845 ft 247 kts 128°
2026-05-04 07:04 51.52313 -0.12764 4936 ft 259 kts 154°
2026-05-04 07:04 51.50568 -0.12245 4908 ft 252 kts 188°
2026-05-04 07:04 51.49051 -0.13280 4574 ft 233 kts 218°
2026-05-04 07:05 51.48037 -0.15232 3908 ft 229 kts 246°
2026-05-04 07:05 51.47730 -0.17705 3197 ft 228 kts 270°
2026-05-04 07:05 51.47720 -0.18442 2993 ft 228 kts 271°
2026-05-04 07:05 51.47728 -0.20219 2527 ft 230 kts 272°
2026-05-04 07:06 51.47767 -0.24989 1999 ft 192 kts 272°
2026-05-04 07:06 51.47794 -0.26965 1980 ft 166 kts 275°
2026-05-04 07:06 51.47856 -0.28724 1946 ft 158 kts 273°
2026-05-04 07:07 51.47867 -0.30505 1724 ft 157 kts 272°
2026-05-04 07:08 51.47775 -0.42561 250 ft 152 kts 271°
2026-05-04 07:09 51.47768 -0.44263 101 ft 149 kts 272°
2026-05-04 07:09 51.47762 -0.45339 91 ft 28 kts 270°
2026-05-04 07:09 51.47762 -0.45374 90 ft 0 kts 270°
2026-05-04 07:09 51.47762 -0.45452 90 ft 25 kts 270°
2026-05-04 07:10 51.47762 -0.46026 90 ft 56 kts 269°
2026-05-04 07:10 51.47753 -0.46449 96 ft 36 kts 263°